Total_Precipitation_Accumulation
0.64 0.60 0.60 0.59 0.54 0.52 0.52 0.53 0.54 0.52 0.50 0.47 0.42 0.39 0.39 0.41 0.37 0.31 0.27 0.25 0.24 0.27 0.39 0.61 0.91 1.22 1.45 1.53 1.52 1.36 1.26 1.12 0.96 0.88 0.84 0.90 0.90 0.88 0.93 1.05 1.02 0.91 0.88
0.60 0.55 0.52 0.52 0.47 0.42 0.40 0.39 0.39 0.40 0.41 0.39 0.35 0.31 0.32 0.36 0.36 0.34 0.33 0.34 0.29 0.28 0.32 0.45 0.67 0.98 1.33 1.57 1.65 1.58 1.43 1.32 1.16 0.99 0.92 0.91 0.95 0.94 0.93 0.98 1.06 1.03 0.93
0.62 0.60 0.55 0.51 0.49 0.47 0.46 0.43 0.42 0.40 0.37 0.35 0.32 0.29 0.28 0.28 0.32 0.34 0.36 0.37 0.38 0.36 0.34 0.41 0.54 0.78 1.17 1.54 1.74 1.85 1.70 1.50 1.36 1.21 1.01 0.91 0.93 0.97 0.96 1.00 1.07 1.14 1.11
0.63 0.62 0.59 0.55 0.55 0.55 0.56 0.54 0.48 0.45 0.41 0.37 0.34 0.32 0.30 0.28 0.26 0.29 0.34 0.35 0.36 0.36 0.35 0.38 0.50 0.70 0.98 1.34 1.67 1.95 2.03 1.82 1.67 1.58 1.37 1.13 0.98 0.99 1.03 1.04 1.10 1.18 1.26
0.64 0.61 0.60 0.61 0.64 0.67 0.66 0.61 0.57 0.50 0.47 0.43 0.40 0.38 0.34 0.31 0.30 0.30 0.31 0.35 0.37 0.35 0.35 0.37 0.43 0.55 0.75 1.09 1.55 1.96 2.32 2.32 2.11 1.96 1.77 1.55 1.29 1.12 1.13 1.12 1.16 1.24 1.35
0.68 0.66 0.64 0.65 0.70 0.73 0.72 0.68 0.61 0.56 0.53 0.51 0.52 0.49 0.41 0.34 0.32 0.31 0.30 0.32 0.35 0.36 0.36 0.40 0.44 0.43 0.49 0.68 1.02 1.52 2.01 2.37 2.41 2.28 2.16 1.96 1.74 1.51 1.37 1.31 1.27 1.35 1.47
0.77 0.76 0.69 0.70 0.69 0.70 0.68 0.67 0.67 0.66 0.62 0.60 0.65 0.64 0.56 0.44 0.36 0.31 0.31 0.33 0.35 0.40 0.47 0.52 0.58 0.55 0.48 0.52 0.59 0.82 1.32 1.95 2.35 2.49 2.47 2.42 2.21 1.94 1.72 1.56 1.50 1.53 1.60
0.80 0.85 0.78 0.72 0.71 0.69 0.71 0.72 0.71 0.71 0.71 0.67 0.69 0.74 0.68 0.59 0.46 0.35 0.32 0.34 0.37 0.45 0.57 0.62 0.68 0.70 0.63 0.54 0.45 0.50 0.70 1.21 1.91 2.44 2.59 2.58 2.62 2.44 2.10 1.84 1.73 1.76 1.83
0.74 0.81 0.85 0.79 0.74 0.71 0.69 0.67 0.67 0.67 0.70 0.65 0.62 0.82 0.87 0.64 0.42 0.32 0.30 0.30 0.31 0.33 0.38 0.45 0.53 0.59 0.66 0.66 0.57 0.50 0.53 0.75 1.29 2.05 2.60 2.71 2.75 2.85 2.65 2.22 1.95 1.88 1.93
0.78 0.75 0.82 0.84 0.82 0.78 0.73 0.68 0.66 0.66 0.72 0.74 0.65 0.61 0.65 0.64 0.63 0.45 0.29 0.27 0.27 0.27 0.27 0.28 0.34 0.40 0.51 0.63 0.70 0.67 0.63 0.65 0.95 1.48 2.19 2.79 2.93 3.07 3.20 2.84 2.37 2.11 2.01
0.89 0.80 0.77 0.81 0.82 0.82 0.80 0.75 0.70 0.71 0.74 0.77 0.75 0.64 0.57 0.50 0.52 0.61 0.43 0.31 0.30 0.27 0.27 0.27 0.29 0.31 0.35 0.46 0.58 0.68 0.75 0.73 0.89 1.19 1.62 2.36 3.03 3.30 3.49 3.37 2.86 2.39 2.13
0.98 0.95 0.82 0.79 0.81 0.81 0.83 0.80 0.74 0.73 0.75 0.75 0.74 0.71 0.71 0.68 0.56 0.59 0.54 0.38 0.35 0.32 0.33 0.33 0.33 0.32 0.34 0.37 0.45 0.61 0.70 0.75 0.82 0.96 1.15 1.61 2.44 3.18 3.47 3.43 3.14 2.74 2.34
1.09 0.98 0.93 0.84 0.82 0.80 0.81 0.82 0.82 0.76 0.72 0.77 0.79 0.75 0.70 0.66 0.60 0.66 0.73 0.61 0.49 0.40 0.39 0.38 0.36 0.37 0.38 0.39 0.44 0.50 0.56 0.66 0.75 0.83 0.87 0.99 1.42 2.34 3.22 3.56 3.33 2.97 2.68
1.11 1.00 0.95 0.89 0.83 0.84 0.86 0.85 0.83 0.81 0.77 0.74 0.73 0.73 0.71 0.66 0.66 0.72 0.82 0.90 0.81 0.55 0.44 0.41 0.38 0.38 0.41 0.44 0.47 0.51 0.47 0.55 0.64 0.74 0.82 0.88 0.99 1.38 2.21 3.22 3.84 3.56 3.06
1.22 1.15 1.06 1.00 0.93 0.91 0.90 0.90 0.87 0.82 0.82 0.82 0.79 0.76 0.76 0.70 0.69 0.72 0.78 0.92 1.11 0.92 0.51 0.34 0.36 0.39 0.40 0.46 0.55 0.52 0.47 0.52 0.59 0.67 0.75 0.84 0.93 1.04 1.38 2.07 3.09 3.84 3.76
1.32 1.33 1.27 1.20 1.10 1.06 1.03 1.00 0.95 0.87 0.85 0.85 0.87 0.84 0.82 0.79 0.76 0.77 0.80 0.81 0.89 0.98 0.74 0.37 0.34 0.39 0.46 0.48 0.57 0.54 0.54 0.61 0.63 0.65 0.70 0.75 0.84 0.98 1.14 1.43 2.06 3.06 3.72
1.38 1.44 1.47 1.42 1.33 1.23 1.19 1.18 1.12 1.05 1.00 0.92 0.91 0.91 0.88 0.84 0.84 0.80 0.80 0.78 0.76 0.84 0.86 0.45 0.35 0.41 0.52 0.57 0.61 0.61 0.62 0.61 0.59 0.63 0.70 0.75 0.80 0.91 1.06 1.25 1.53 2.17 3.10
1.35 1.40 1.58 1.60 1.53 1.43 1.34 1.35 1.35 1.26 1.21 1.12 1.06 1.03 0.99 0.97 1.00 0.94 0.89 0.83 0.76 0.75 0.86 0.70 0.44 0.43 0.53 0.64 0.72 0.73 0.71 0.68 0.64 0.72 0.76 0.77 0.80 0.86 0.99 1.16 1.36 1.67 2.30
1.31 1.40 1.57 1.70 1.66 1.62 1.52 1.40 1.46 1.56 1.52 1.43 1.34 1.31 1.25 1.20 1.21 1.16 1.08 0.96 0.84 0.77 0.80 0.80 0.61 0.50 0.56 0.69 0.85 0.87 0.84 0.80 0.72 0.79 0.82 0.83 0.84 0.85 0.92 1.07 1.25 1.45 1.72
1.26 1.43 1.55 1.71 1.79 1.84 1.91 1.81 1.71 1.63 1.61 1.60 1.55 1.52 1.54 1.51 1.46 1.40 1.36 1.16 0.99 0.93 0.89 0.91 0.79 0.64 0.64 0.73 0.98 1.08 1.06 0.98 0.91 0.83 0.85 0.86 0.89 0.90 0.89 0.93 1.03 1.19 1.44
1.27 1.40 1.51 1.64 1.69 1.89 2.34 2.45 2.03 1.54 1.40 1.41 1.38 1.36 1.45 1.59 1.65 1.66 1.65 1.47 1.31 1.28 1.21 1.18 1.04 0.88 0.80 0.89 1.08 1.17 1.24 1.18 1.18 1.01 0.86 0.81 0.82 0.82 0.83 0.89 0.98 1.08 1.27
1.26 1.38 1.43 1.45 1.50 1.71 2.24 2.38 1.88 1.44 1.26 1.24 1.24 1.19 1.20 1.34 1.42 1.49 1.61 1.62 1.65 1.71 1.65 1.50 1.32 1.14 0.95 0.90 1.03 1.31 1.43 1.52 1.54 1.23 1.06 0.98 0.87 0.88 0.88 0.87 0.93 0.97 1.14
1.19 1.24 1.28 1.26 1.27 1.46 1.92 2.00 1.71 1.39 1.21 1.10 1.08 1.08 1.07 1.11 1.21 1.14 1.25 1.39 1.49 1.67 1.78 1.75 1.66 1.33 1.08 1.00 1.18 1.43 1.54 1.62 1.53 1.36 1.36 1.42 1.18 1.05 0.98 0.99 1.02 0.96 1.06
1.14 1.11 1.11 1.10 1.10 1.23 1.69 1.87 1.71 1.40 1.29 1.18 1.11 1.01 0.97 0.97 1.12 1.18 1.22 1.22 1.18 1.30 1.54 1.69 1.76 1.54 1.32 1.27 1.49 1.73 1.87 1.89 1.73 1.62 1.59 1.72 1.43 1.23 1.15 1.10 1.08 0.99 1.00
1.00 0.99 0.98 1.03 1.00 1.06 1.52 1.92 1.84 1.46 1.44 1.35 1.24 1.16 1.06 0.94 1.17 1.30 1.22 1.14 1.04 1.08 1.24 1.51 1.68 1.69 1.67 1.72 1.87 2.11 2.24 2.29 2.17 1.86 1.72 1.80 1.65 1.43 1.38 1.38 1.27 1.14 1.02
0.86 0.88 0.85 0.90 0.91 0.96 1.30 1.83 1.97 1.51 1.42 1.34 1.27 1.24 1.31 1.23 1.30 1.26 1.12 1.14 1.16 1.03 1.00 1.09 1.17 1.26 1.28 1.32 1.60 1.84 2.01 2.20 2.17 2.16 1.85 1.80 1.82 1.76 1.91 1.63 1.36 1.12 0.99